Weather History for Curacao, Curacao

Change the Weather History Date:

Sunday, January 5, 2014

  Actual Average Record
Temperature  
Mean Temperature 77 °F -  
Max Temperature 82 °F 84 °F 87 °F (2001)
Min Temperature 72 °F 75 °F 72 °F (2014)
Cooling Degree Days 12    
Growing Degree Days 27 (Base 50)    
Moisture  
Dew Point 68 °F    
Average Humidity 76    
Maximum Humidity 83    
Minimum Humidity 59    
Precipitation  
Precipitation 0.01 in 0.06 in - ()
Sea Level Pressure  
Sea Level Pressure 29.92 in    
Wind  
Wind Speed 11 mph ()    
Max Wind Speed 17 mph    
Max Gust Speed -    
Visibility 8.7 miles    
Events Rain    
Averages and records for this station are not official NWS values.
T = Trace of Precipitation, MM = Missing Value Source: Averaged Metar Reports

Daily Weather History Graph

Daily Weather History Graph

Search for Another Location

Airport:

Trip Planner

Search our weather history database for the weather conditions in past years. The results will help you decide how hot, cold, wet, or windy it might be!

Date:

Astronomy

Jan. 05, 2014 Rise Set
Actual Time 6:58 AM AST 6:24 PM AST
Civil Twilight 6:35 AM AST 6:47 PM AST
Nautical Twilight 6:08 AM AST 7:13 PM AST
Astronomical Twilight 5:42 AM AST 7:39 PM AST
Moon 10:29 AM AST (1/5) 10:50 PM AST (1/5)
Length of Visible Light 12h 12m
Length of Day
11h 26m
Waxing Crescent, 24% of the Moon is Illuminated
Jan 5
Waxing Crescent
Jan 7
First Quarter
Jan 16
Full
Jan 24
Last Quarter
Jan 30
New

Hourly Weather History & Observations

Time (AST) Temp. Heat Index Dew Point Humidity Pressure Visibility Wind Dir Wind Speed Gust Speed Precip Events Conditions
12:00 AM 75.2 °F - 68.0 °F 78% 29.92 in 6.2 mi East 12.7 mph - N/A   Partly Cloudy
1:00 AM 73.4 °F - 68.0 °F 83% 29.89 in 6.2 mi ESE 13.8 mph - N/A   Partly Cloudy
2:00 AM 74 °F - 67 °F 74% 29.90 in 16 mi ESE 10.4 mph - -   Partly Cloudy
2:00 AM 73.4 °F - 68.0 °F 83% 29.89 in 6.2 mi ESE 13.8 mph - N/A   Scattered Clouds
3:00 AM 73.4 °F - 68.0 °F 83% 29.86 in 6.2 mi ESE 13.8 mph - N/A   Scattered Clouds
4:00 AM 73.4 °F - 66.2 °F 78% 29.86 in 6.2 mi ESE 12.7 mph - N/A   Scattered Clouds
5:00 AM 73 °F - 67 °F 76% 29.89 in 16 mi ESE 11.5 mph - -   Scattered Clouds
5:00 AM 73.4 °F - 66.2 °F 78% 29.89 in 6.2 mi ESE 10.4 mph - N/A   Partly Cloudy
6:00 AM 73.4 °F - 66.2 °F 78% 29.89 in 6.2 mi ESE 10.4 mph - N/A   Partly Cloudy
7:00 AM 73.4 °F - 68.0 °F 83% 29.92 in 6.2 mi ESE 10.4 mph - N/A   Partly Cloudy
8:00 AM 73 °F - 69 °F 82% 29.95 in 16 mi SE 10.4 mph - - Rain Light Rain Showers
8:00 AM 73.4 °F - 68.0 °F 83% 29.95 in 6.2 mi ESE 8.1 mph - N/A   Partly Cloudy
9:00 AM 77.0 °F - 69.8 °F 78% 29.98 in 6.2 mi ESE 13.8 mph - N/A   Scattered Clouds
10:00 AM 78.8 °F - 68.0 °F 69% 29.98 in 6.2 mi ESE 17.3 mph - N/A   Scattered Clouds
11:00 AM 81 °F - 69 °F 59% 29.97 in 16 mi ESE 15.0 mph - -   Partly Cloudy
11:00 AM 80.6 °F 83.9 °F 69.8 °F 70% 29.98 in 6.2 mi East 17.3 mph - N/A   Scattered Clouds
12:00 PM 78.8 °F - 69.8 °F 74% 29.95 in 6.2 mi East 15.0 mph - N/A   Scattered Clouds
1:00 PM 78.8 °F - 69.8 °F 74% 29.92 in 6.2 mi East 15.0 mph - N/A   Scattered Clouds
2:00 PM 80 °F - 70 °F 63% 29.91 in 16 mi ESE 12.7 mph - -   Partly Cloudy
2:00 PM 80.6 °F 83.9 °F 69.8 °F 70% 29.89 in 6.2 mi East 15.0 mph - N/A   Scattered Clouds
4:00 PM 78.8 °F - 68.0 °F 69% 29.89 in 6.2 mi East 15.0 mph - N/A   Scattered Clouds
5:00 PM 78 °F - 69 °F 66% 29.90 in 16 mi ESE 11.5 mph - -   Scattered Clouds
5:00 PM 78.8 °F - 68.0 °F 69% 29.89 in 6.2 mi ESE 16.1 mph - N/A   Partly Cloudy
6:00 PM 77.0 °F - 68.0 °F 74% 29.89 in 6.2 mi ESE 13.8 mph - N/A   Partly Cloudy
7:00 PM 75.2 °F - 68.0 °F 78% 29.92 in 6.2 mi ESE 12.7 mph - N/A   Partly Cloudy
8:00 PM 74 °F - 69 °F 78% 29.94 in 16 mi East 11.5 mph - -   Scattered Clouds
8:00 PM 75.2 °F - 68.0 °F 78% 29.92 in 6.2 mi East 13.8 mph - N/A   Partly Cloudy
9:00 PM 73.4 °F - 68.0 °F 83% 29.95 in 6.2 mi East 13.8 mph - N/A   Partly Cloudy
10:00 PM 73.4 °F - 68.0 °F 83% 29.95 in 6.2 mi East 11.5 mph - N/A   Partly Cloudy
11:00 PM 74 °F - 68 °F 76% 29.95 in 16 mi ESE 9.2 mph - -   Scattered Clouds
11:00 PM 73.4 °F - 68.0 °F 83% 29.95 in 6.2 mi East 11.5 mph - N/A   Partly Cloudy